sat.trackr.live / text

‹ back to catalog

STARLINK-31290

NORAD 59085 · 2024-041M

PAYLOAD ACTIVE UNKNOWN

§ Identity

Operator
Country
US
Launch date
2024-02-29
Launch site
AFETR
Launch vehicle
Mass (kg)
RCS (m²)

Purposes: comms

External: N2YO · Heavens-Above · Gunter

§ Orbital elements

Epoch: 2026-09-20T07:50:43.036800Z

Period
94.27 min
Inclination
43.0023°
Eccentricity
0.0000938
Mean motion
15.27568411 rev/d
Perigee alt
482.4 km
Apogee alt
483.7 km
Semi-major
6,861.2 km
B*
1.2559e-5
RAAN
277.2319°
Arg perigee
274.1376°
Mean anomaly
85.9368°
Rev number
14,434

§ Raw data

STARLINK-312901 59085U 24041M   26263.32688700  .00000084  00000+0  12559-4 0  99982 59085  43.0023 277.2319 0000938 274.1376  85.9368 15.27568411144347

JSON: /api/v1/satellites/59085 · /tle

For live sub-satellite position, see the globe view (requires WebGL).

§ Visibility from observer

Set your observer location to see the next 7 days of passes ≥ 10°. The values pass through the URL so the page stays shareable.

No JS? Fill the form by hand. The geolocation button needs JavaScript.